map of PMW home
PMW - Airport
Location
City:  Palmas, Tocantins, Brazil
Name:Tocantins
ICAO:SBPJ
IATA:PMW

Details
Type:Airport (Aerodrome, Airfield)
Use:Public/Civil
Latitude:1017'29"S (-10.291524)
Longitude:4821'25"W (-48.356971)
Datum:WGS 1984
Elevation:774 ft (236 m)
Variation:21.21W (WMM2015 magnetic declination)
-0.07 annual change
Runways:1
Longest:8185 × 148 ft (2495 × 45 m), paved

Time
Time Zone:UTC-3
Local Time:

Weather
METAR:SBPJ 262100Z 18005KT 9999 FEW035 FEW040TCU 26/23 Q1010
TAF:SBPJ 261600Z 2618/2706 19002KT 9999 BKN030 FEW035TCU TX33/2618Z TN24/2705Z PROB40 2619/2624 TSRA FEW009 FEW038CB
BECMG 2701/2703 00000KT 8000 NSC
RMK PCZ

Related Locations
Nearby:
Farthest:ROR: 12157 mi / 19565 km
Babelthuap Island [Babelthuap/Koror Airport], PW

Find:

   beyond  
but within

Other Information
Maps:
NOTAMs:
Links:
Sources:

  
flag of Brazil
flag of Tocantins
  

Sectional Chart

Flight Planning
at skyvector.com

Satellite Image

Google Maps Satellite view

 

Copyright © 2004-2017 Karl L. Swartz. All rights reserved.
The Great Circle Mapper name and logo are trademarks of the Great Circle Mapper.
All other trademarks mentioned herein belong to their respective owners.
Please see credits for attibutions and further copyright information.

  Follow gcmap on Facebook Follow gcmap on Twitter Follow gcmap on Google+ GCmap on LinkedIn

hCard Microformat

Geo Microformat